ITY110 LEPA-LPPT

Flight info

Callsign ITY110
Flight time N/A
Altitude 39000
Route EPAMA4A/24R EPAMA N733 VLC/N0360F130 N733 CJN N975 CCS DCT UPULO UPULO2A/02
Aircraft A332/H-SDE3GHIJ2J3J5M1RVWXY/LB2D1

Departure

Time N/A
Airport Palma de Mallorca Airport (LEPA)

Arrival

Time 2026-05-03 20:26
Airport Lisbon Humberto Delgado Airport (LPPT)
Time Latitude Longitude Altitude Speed Heading
2026-05-03 20:15 38.70261 -8.57332 18552 ft 303 kts 251°
2026-05-03 20:15 38.69580 -8.59888 18136 ft 302 kts 251°
2026-05-03 20:15 38.68902 -8.62431 17701 ft 301 kts 251°
2026-05-03 20:15 38.68225 -8.64964 17296 ft 300 kts 251°
2026-05-03 20:16 38.67770 -8.66667 17015 ft 299 kts 251°
2026-05-03 20:16 38.67099 -8.69175 16603 ft 297 kts 251°
2026-05-03 20:16 38.66430 -8.71673 16191 ft 296 kts 251°
2026-05-03 20:16 38.65773 -8.74123 15865 ft 292 kts 251°
2026-05-03 20:17 38.65113 -8.76583 15461 ft 292 kts 251°
2026-05-03 20:17 38.64453 -8.79040 15042 ft 291 kts 251°
2026-05-03 20:17 38.63796 -8.81485 14634 ft 291 kts 251°
2026-05-03 20:17 38.63140 -8.83923 14268 ft 289 kts 251°
2026-05-03 20:18 38.62488 -8.86347 13874 ft 288 kts 251°
2026-05-03 20:18 38.61835 -8.88767 13447 ft 287 kts 251°
2026-05-03 20:18 38.61183 -8.91183 13039 ft 286 kts 251°
2026-05-03 20:18 38.60537 -8.93575 12634 ft 284 kts 251°
2026-05-03 20:19 38.59893 -8.95958 12227 ft 283 kts 251°
2026-05-03 20:19 38.59248 -8.98341 11809 ft 282 kts 251°
2026-05-03 20:19 38.58613 -9.00686 11428 ft 281 kts 251°
2026-05-03 20:19 38.57980 -9.03021 11034 ft 280 kts 251°
2026-05-03 20:20 38.57343 -9.05368 10654 ft 279 kts 251°
2026-05-03 20:20 38.56710 -9.07699 10228 ft 276 kts 251°
2026-05-03 20:20 38.56086 -9.09995 9706 ft 269 kts 251°
2026-05-03 20:20 38.55479 -9.12225 9184 ft 261 kts 251°
2026-05-03 20:21 38.54891 -9.14384 8664 ft 254 kts 251°
2026-05-03 20:21 38.54317 -9.16493 8166 ft 248 kts 251°
2026-05-03 20:21 38.53878 -9.18598 7662 ft 243 kts 268°
2026-05-03 20:21 38.54323 -9.20603 7171 ft 242 kts 303°
2026-05-03 20:22 38.55597 -9.21984 6732 ft 241 kts 330°
2026-05-03 20:22 38.57108 -9.22794 6519 ft 229 kts 336°
2026-05-03 20:22 38.58629 -9.23311 6170 ft 226 kts 354°
2026-05-03 20:22 38.60206 -9.23109 5638 ft 233 kts 11°
2026-05-03 20:23 38.61753 -9.22373 4875 ft 243 kts 20°
2026-05-03 20:23 38.63294 -9.21507 4266 ft 239 kts 20°
2026-05-03 20:23 38.64808 -9.20688 3591 ft 236 kts 19°
2026-05-03 20:23 38.66347 -9.19878 2722 ft 238 kts 19°
2026-05-03 20:24 38.67808 -9.19112 2169 ft 219 kts 19°
2026-05-03 20:24 38.69130 -9.18412 1895 ft 193 kts 18°
2026-05-03 20:24 38.70302 -9.17785 1692 ft 173 kts 19°
2026-05-03 20:24 38.71357 -9.17220 1445 ft 157 kts 17°
2026-05-03 20:25 38.72325 -9.16702 1262 ft 145 kts 17°
2026-05-03 20:25 38.73217 -9.16225 1063 ft 134 kts 17°
2026-05-03 20:25 38.74076 -9.15767 875 ft 134 kts 18°
2026-05-03 20:25 38.74940 -9.15304 695 ft 133 kts 17°
2026-05-03 20:26 38.75803 -9.14842 531 ft 136 kts 19°
2026-05-03 20:26 38.76648 -9.14390 374 ft 132 kts 24°
2026-05-03 20:26 38.77446 -9.13970 356 ft 101 kts 21°
2026-05-03 20:26 38.77855 -9.13744 354 ft 43 kts 21°
2026-05-03 20:27 38.78114 -9.13599 359 ft 39 kts 24°
2026-05-03 20:27 38.78240 -9.13499 356 ft 0 kts 65°
2026-05-03 20:27 38.78235 -9.13490 354 ft 2 kts 118°
2026-05-03 20:27 38.78197 -9.13480 359 ft 14 kts 165°
2026-05-03 20:28 38.78043 -9.13426 358 ft 32 kts 164°
2026-05-03 20:28 38.77867 -9.13372 352 ft 14 kts 167°
2026-05-03 20:28 38.77775 -9.13344 358 ft 3 kts 168°
2026-05-03 20:28 38.77698 -9.13326 359 ft 6 kts 180°
2026-05-03 20:29 38.77692 -9.13332 356 ft 2 kts 214°
2026-05-03 20:29 38.77650 -9.13394 353 ft 11 kts 218°
2026-05-03 20:29 38.77559 -9.13459 359 ft 22 kts 205°
2026-05-03 20:29 38.77419 -9.13524 356 ft 20 kts 186°
2026-05-03 20:30 38.77283 -9.13501 356 ft 20 kts 170°
2026-05-03 20:30 38.77142 -9.13464 353 ft 21 kts 169°
2026-05-03 20:30 38.77004 -9.13427 357 ft 11 kts 180°
2026-05-03 20:30 38.76985 -9.13444 361 ft 1 kts 255°
2026-05-03 20:31 38.76974 -9.13477 359 ft 4 kts 230°
2026-05-03 20:31 38.76913 -9.13509 359 ft 11 kts 214°
2026-05-03 20:31 38.76882 -9.13592 352 ft 6 kts 261°
2026-05-03 20:31 38.76882 -9.13593 352 ft 0 kts 260°